Theta_e
311 310 309 309 312 315 314 315 315 315 313 312 312 312 313 314 315 316 316 319 321 317 316 318 318 318 319 319 319 318 312 314 318 319 319 331 341 340 342 342 342 340 337 339 340
310 311 309 309 313 314 315 316 316 313 312 311 311 312 313 314 316 317 317 322 320 316 318 320 319 319 319 319 318 314 311 317 317 318 317 328 336 342 339 338 338 337 337 343 341
311 311 310 309 313 314 316 316 317 313 312 311 311 312 314 315 322 326 322 323 321 316 319 319 319 319 318 318 319 316 314 315 319 320 319 324 335 340 337 337 336 338 338 344 343
309 311 310 309 312 314 316 316 317 314 312 311 312 313 315 320 325 320 323 319 316 315 318 318 320 318 315 316 318 318 317 317 321 320 320 320 337 336 336 336 338 337 335 339 342
308 309 310 309 310 314 315 315 317 315 313 312 313 314 317 323 324 322 319 316 315 315 318 320 320 318 317 317 318 316 318 318 321 320 321 320 320 326 340 338 339 339 337 338 339
308 309 309 309 310 313 315 315 317 315 314 314 314 316 321 323 320 319 320 320 319 320 320 320 320 319 319 318 318 320 319 319 319 320 321 320 318 327 343 340 339 340 341 341 340
310 308 309 309 313 314 314 316 317 315 315 315 315 316 320 322 322 320 320 319 319 320 320 320 320 320 320 318 320 320 319 316 319 319 319 320 317 327 342 339 340 341 340 339 340
314 310 308 309 314 314 315 317 317 316 315 316 321 327 324 324 322 321 321 320 319 319 320 320 320 320 320 320 318 316 313 316 316 318 319 319 317 331 341 339 337 336 338 339 340
312 314 310 311 314 316 317 318 317 316 317 318 325 325 328 322 322 321 321 321 320 319 320 320 319 319 319 315 314 313 317 317 317 317 318 317 333 339 340 338 334 332 333 335 337
316 312 313 311 316 318 321 323 322 318 319 320 322 322 325 323 322 322 322 321 321 320 320 320 319 313 311 313 317 319 318 318 317 317 316 322 336 338 338 336 332 329 330 332 333
316 316 312 312 317 319 320 321 320 322 321 320 321 321 322 322 322 322 321 321 320 320 317 319 315 316 317 315 317 318 319 319 318 318 318 321 338 336 333 331 329 328 327 328 329
316 316 315 314 317 319 321 321 320 321 319 321 320 320 323 323 321 322 321 321 320 318 318 316 318 318 317 317 318 319 319 319 320 318 316 330 334 332 331 329 327 327 325 325 325
317 316 316 313 320 320 320 320 319 319 319 320 320 322 322 322 321 321 321 321 319 319 318 317 319 319 318 319 319 317 318 319 320 318 316 321 327 335 329 326 325 325 324 323 322
316 317 316 315 317 320 321 320 319 320 315 319 324 322 322 321 321 321 321 321 319 320 316 317 319 320 320 321 318 320 318 319 319 316 319 315 316 332 331 328 324 324 323 323 323
315 316 316 315 315 318 321 320 319 321 325 325 322 321 321 320 321 321 321 321 320 321 318 320 320 320 321 321 320 320 318 319 319 314 314 314 312 317 330 330 326 324 323 323 324
313 315 316 316 316 316 321 320 319 316 321 323 321 318 318 320 320 320 321 321 320 320 319 320 320 320 319 318 319 318 319 314 311 312 315 315 315 315 330 330 326 326 323 322 323
312 313 315 315 316 317 319 319 316 320 320 322 320 318 318 318 319 320 320 319 318 319 320 320 320 320 320 320 317 315 315 316 317 313 317 315 320 316 328 327 327 325 323 321 320
311 312 314 315 318 319 320 316 322 319 324 322 320 319 318 317 318 320 319 319 321 319 318 320 322 321 321 319 318 317 315 316 320 316 315 318 329 327 327 327 327 325 322 322 321
310 312 314 317 319 320 321 317 317 321 323 321 320 319 319 319 318 320 318 318 321 320 321 320 322 320 319 320 319 319 317 314 315 314 316 318 328 327 327 326 325 325 324 323 322
309 311 314 322 320 322 315 316 319 320 320 321 322 321 322 323 320 318 320 320 320 319 318 318 320 319 320 319 317 318 315 316 312 318 319 316 324 326 328 327 324 324 324 323 322
310 313 316 322 322 322 314 315 318 320 321 321 322 323 322 323 322 320 321 319 319 319 317 316 316 318 318 318 319 316 317 315 313 314 317 318 318 319 327 325 325 324 325 325 324
311 313 315 317 319 314 315 317 321 322 322 319 319 320 321 322 321 322 321 320 319 319 319 318 315 318 320 319 318 317 319 314 317 317 317 317 318 315 322 325 325 325 325 325 325
314 315 312 314 313 313 314 318 321 321 320 320 320 320 319 320 320 321 320 318 320 319 318 317 315 315 314 318 318 319 319 317 313 312 316 316 316 316 320 321 324 325 325 326 325
315 312 316 321 317 313 316 317 320 320 320 320 319 319 319 319 317 319 319 318 319 320 319 318 314 314 314 317 318 321 320 319 317 317 317 316 316 316 315 316 318 317 317 318 322
315 313 317 316 316 317 316 318 319 321 319 318 318 319 318 319 318 322 320 318 318 319 317 311 315 317 316 318 320 320 320 320 318 317 319 318 316 314 312 314 317 322 323 323 323
316 315 320 319 319 316 315 316 318 320 318 319 319 320 318 319 319 320 321 319 317 318 317 313 316 320 321 321 321 321 319 318 318 318 315 314 313 315 320 322 322 322 321 320 319
312 315 318 319 314 316 315 318 320 319 319 319 320 319 319 319 319 320 320 319 319 315 315 315 316 317 321 320 319 319 317 318 318 316 312 312 312 318 320 321 321 321 321 321 320
Wind_Speed
15 12 11 10 8 8 9 11 12 11 9 5 5 6 7 6 7 7 6 3 1 2 1 3 3 2 1 2 2 1 4 3 4 3 5 8 5 9 4 9 1 2 12 21 31
17 14 12 10 8 8 9 11 11 10 6 3 3 4 4 5 6 6 4 2 0 1 4 3 2 3 1 2 1 4 3 4 4 3 3 3 6 3 4 6 5 17 19 27 26
20 16 12 10 9 8 10 11 11 9 5 2 1 1 1 2 1 2 2 3 1 3 5 1 4 3 2 2 1 2 4 5 7 6 3 5 4 3 11 3 8 22 29 28 25
23 18 13 10 8 9 11 12 11 9 5 3 2 2 0 1 2 4 1 1 2 6 6 3 4 2 2 2 1 1 6 7 3 1 6 3 10 3 17 10 16 25 29 28 22
26 20 14 11 9 10 11 12 10 8 5 4 3 3 2 2 2 4 3 2 5 8 3 4 2 3 1 2 3 3 3 6 4 1 5 10 4 8 20 22 22 30 32 28 26
29 23 16 13 10 10 11 11 9 7 4 5 4 3 2 1 8 7 8 6 7 5 2 6 2 5 2 1 3 5 4 1 4 3 2 3 4 7 11 21 24 25 23 22 22
30 25 18 14 12 11 12 10 7 5 4 5 3 1 2 1 4 3 5 3 3 3 5 7 7 3 5 5 10 3 1 5 3 1 2 3 8 4 21 23 25 23 19 17 14
30 26 20 15 12 12 12 9 7 4 4 4 2 4 2 2 4 3 1 0 1 0 2 4 8 4 2 6 7 5 6 4 5 3 2 6 1 3 19 27 23 21 20 19 17
29 26 21 16 13 11 10 9 6 4 3 4 4 6 2 3 7 4 4 3 4 2 3 4 4 2 2 4 5 7 1 2 8 3 2 5 5 8 10 29 22 19 18 19 18
27 27 22 16 12 8 12 7 7 5 7 9 7 5 1 4 4 5 4 6 6 3 3 2 3 3 4 5 3 3 3 3 3 6 7 14 8 7 12 22 21 20 17 18 17
26 26 23 17 9 7 13 8 14 3 17 16 19 14 13 5 6 6 5 4 5 1 1 3 5 2 6 7 3 3 2 3 5 7 7 8 10 7 10 18 19 18 17 16 16
25 26 25 15 7 6 8 13 17 11 11 16 17 16 13 10 4 8 7 2 1 1 1 6 2 7 3 4 5 5 4 4 3 6 8 9 9 8 10 6 14 17 15 15 15
24 25 25 17 7 6 9 13 11 10 5 13 8 9 8 11 7 6 10 3 4 1 4 6 5 1 4 3 8 4 6 2 2 4 6 7 4 5 6 11 13 17 16 15 15
23 24 24 21 8 8 7 9 10 11 4 6 4 6 11 9 3 12 9 3 1 0 5 3 2 2 4 4 4 3 3 4 3 4 2 4 3 3 4 4 7 15 16 16 15
23 23 22 20 17 6 11 10 9 4 3 2 4 4 11 10 5 9 12 4 4 2 5 4 1 3 3 2 4 4 3 2 2 4 4 2 4 1 5 6 5 8 14 16 15
24 23 23 22 18 8 10 14 5 5 5 2 8 6 6 6 4 11 6 3 2 3 3 2 4 3 5 3 2 3 3 6 4 3 2 4 5 4 7 7 5 8 13 15 15
24 23 23 22 20 12 9 7 4 3 5 2 6 5 5 5 4 5 4 2 4 3 4 5 4 5 4 4 6 7 6 4 5 4 5 2 2 6 2 10 12 18 17 12 9
25 24 23 17 9 4 4 4 2 4 6 4 2 3 6 6 6 6 4 2 2 4 3 3 3 3 1 2 5 4 6 5 3 3 5 3 3 5 4 10 14 16 13 11 11
25 24 22 14 10 6 1 3 6 4 4 6 4 4 3 4 6 4 8 4 1 3 6 4 1 4 6 2 4 3 1 3 5 2 2 2 1 3 2 2 7 12 14 16 13
25 24 17 3 13 9 4 5 4 5 6 3 1 2 3 3 4 6 4 0 3 1 3 5 3 3 4 5 7 3 5 3 3 2 4 4 3 4 7 10 7 11 21 20 16
19 12 4 2 13 5 3 6 6 14 14 3 3 2 1 2 3 2 1 2 2 2 6 4 4 4 2 1 2 4 1 5 4 4 5 2 5 5 14 14 14 21 28 24 21
9 4 5 4 4 1 3 5 5 8 19 5 3 2 2 1 3 2 3 3 5 4 4 2 5 2 3 5 5 4 3 4 5 4 2 3 6 4 7 16 22 27 31 27 26
11 12 16 9 3 3 5 5 7 7 6 3 2 1 1 3 4 2 2 2 7 3 7 6 2 3 6 6 6 5 3 4 3 2 5 5 5 2 6 7 21 25 25 27 27
7 3 4 4 4 6 4 6 5 5 4 3 4 4 4 3 5 3 2 5 3 5 9 7 3 6 6 4 2 2 4 2 3 2 3 5 6 8 6 6 5 7 14 19 23
5 6 4 3 2 2 3 3 4 3 1 3 4 3 4 3 2 3 1 2 7 3 4 5 4 4 4 4 2 3 5 5 6 6 5 6 5 4 5 4 9 12 12 8 4
6 5 3 6 11 2 4 5 7 2 2 1 7 2 6 5 4 5 4 3 4 2 2 2 2 2 1 3 0 4 8 10 12 7 6 6 2 2 3 17 15 12 12 11 9
13 19 8 6 3 2 4 3 3 5 5 7 15 7 6 7 8 6 3 3 5 8 3 4 6 3 3 1 4 6 5 6 1 4 4 5 5 2 3 11 10 9 9 8 7
Wind_Direction
357 355 352 351 349 344 344 337 332 319 307 290 273 256 260 266 272 270 263 190 198 312 124 105 126 171 313 115 211 191 55 354 338 8 300 9 69 49 89 134 203 185 145 150 149
4 357 358 354 353 344 345 344 344 335 328 313 265 255 258 269 279 277 199 168 360 100 127 81 94 328 161 117 190 90 93 236 190 254 192 90 68 87 115 137 116 107 111 144 152
9 0 359 354 352 346 348 353 353 346 344 346 286 219 238 296 318 46 189 226 261 156 167 283 345 27 65 359 139 149 183 212 277 188 207 99 83 94 125 246 40 110 134 150 161
10 5 3 357 350 348 349 352 356 351 356 30 88 128 142 61 130 15 192 198 197 169 184 8 348 65 82 351 247 295 242 216 250 223 132 95 129 113 48 85 112 131 145 149 158
12 10 7 3 358 349 349 350 350 355 11 59 105 114 100 312 5 4 117 117 149 163 148 345 359 65 73 287 299 186 295 170 172 284 78 131 154 89 88 107 118 125 133 129 129
15 12 12 8 3 353 347 349 354 2 32 79 108 124 41 13 52 95 97 94 97 100 10 13 353 316 268 265 101 307 306 26 209 143 101 104 144 106 99 120 118 127 119 130 138
15 14 12 7 4 354 346 349 359 16 57 90 95 359 294 74 84 85 97 68 44 24 9 24 12 338 333 340 346 334 2 350 323 342 95 117 41 48 139 131 107 109 114 126 125
12 12 8 2 359 354 351 355 4 27 79 89 30 325 262 206 186 177 143 237 82 137 2 7 334 317 344 319 13 33 49 30 286 28 45 117 133 203 145 139 108 103 107 115 111
10 8 3 359 356 4 7 358 9 21 24 351 329 347 266 250 245 202 246 287 306 222 255 318 334 57 47 68 12 13 252 240 311 287 192 80 97 114 118 110 94 94 95 97 102
5 7 359 352 355 14 4 356 356 338 328 310 297 322 294 295 177 180 222 277 266 284 294 327 22 59 38 68 198 254 355 335 258 313 67 86 115 77 99 97 95 94 92 92 94
358 1 1 347 353 16 25 33 8 351 319 288 283 287 295 301 207 202 218 248 245 244 98 14 59 209 222 205 164 149 118 80 331 342 75 99 99 87 85 83 88 95 97 89 85
353 353 357 350 358 9 25 24 2 300 299 293 279 272 269 249 240 223 223 221 73 205 77 15 251 234 234 93 105 82 99 345 310 0 91 106 80 56 42 55 105 119 115 109 102
346 347 351 353 337 10 44 14 358 332 291 294 250 237 233 208 215 214 194 194 214 239 216 174 241 165 138 109 91 29 111 81 121 344 56 112 104 112 49 78 101 123 134 134 134
338 342 346 351 320 335 357 355 345 346 41 276 208 224 206 186 272 237 218 195 72 281 123 207 309 127 103 94 129 108 188 132 90 59 216 45 250 140 153 140 140 141 141 146 144
329 334 338 340 331 310 327 324 314 345 349 225 197 185 186 176 166 215 223 189 154 322 82 264 101 108 94 138 126 189 151 77 123 120 103 343 103 208 153 199 190 170 159 159 154
322 327 327 328 328 289 321 315 302 46 258 289 178 182 124 203 200 159 183 177 143 103 22 290 341 128 157 59 40 109 79 55 62 101 63 237 140 239 192 189 155 197 180 166 157
316 318 318 315 313 289 305 314 44 158 317 233 204 170 170 165 168 170 168 155 150 91 1 6 348 330 97 78 21 68 55 350 351 7 220 244 67 246 179 165 172 190 181 163 144
314 312 310 308 292 243 307 61 210 248 265 309 254 92 179 166 215 175 123 162 14 93 102 144 322 358 70 126 149 71 131 149 242 239 270 291 232 279 193 190 183 181 174 172 172
316 313 308 316 210 231 270 108 211 221 299 323 334 136 231 226 171 136 171 163 170 182 142 139 229 330 36 89 103 163 68 172 104 6 12 238 357 346 104 214 195 199 199 202 196
324 321 317 301 199 218 82 236 242 230 327 342 60 5 132 319 173 154 156 66 121 348 146 188 113 348 329 38 34 87 155 70 9 224 263 295 256 226 202 213 206 215 218 217 212
323 321 300 309 195 180 177 228 263 277 299 238 177 98 114 87 42 73 103 19 119 55 96 109 98 275 3 77 151 356 21 51 118 145 187 271 267 214 205 198 204 216 220 221 220
312 312 225 342 214 118 200 205 233 280 299 274 111 127 143 77 77 87 153 193 150 139 74 46 121 133 244 297 295 192 131 127 128 233 222 154 275 293 220 202 200 218 224 230 234
307 277 268 289 191 243 271 267 254 262 236 233 104 68 7 125 99 98 82 32 129 106 157 177 36 44 353 354 1 61 40 107 120 79 202 143 262 328 183 205 226 231 237 244 245
291 320 288 199 227 164 206 267 264 277 174 149 134 99 74 59 25 133 145 22 21 78 111 106 112 155 193 189 177 307 329 4 121 118 231 228 274 299 323 270 239 221 246 253 245
247 251 267 288 252 338 269 241 247 246 141 104 58 78 137 119 82 88 48 77 29 72 64 105 142 164 169 193 202 225 270 271 198 213 193 256 225 298 311 2 89 104 108 107 143
260 256 300 285 289 268 195 223 202 238 155 82 117 147 112 138 183 179 159 148 186 209 90 4 165 109 168 214 144 281 278 272 263 232 233 221 176 309 59 108 95 92 93 89 84
241 260 273 268 281 153 234 200 223 171 25 156 145 107 103 162 140 125 120 132 179 157 147 117 132 101 238 296 22 316 229 250 318 38 168 165 197 148 77 89 96 101 99 94 81